| time (UTC) | temp F | wind direction | speed MPH | gust MPH | rain 1hr in | rain 24hr in | rain mn in | humidity % | barometer mb |
| 20260506032317 | 69 | 311 | 1.0 | 5.0 | 0.00 | 0.00 | 0.00 | 65 | 1010.6 |
| 20260506031311 | 69 | 147 | 3.0 | 9.0 | 0.00 | 0.00 | 0.00 | 64 | 1010.7 |
| 20260506030311 | 69 | 125 | 1.0 | 7.0 | 0.00 | 0.00 | 0.00 | 63 | 1010.7 |
| 20260506025313 | 69 | 136 | 1.0 | 6.0 | 0.00 | 0.00 | 0.00 | 63 | 1010.8 |
| 20260506024333 | 69 | 1 | 1.0 | 6.0 | 0.00 | 0.00 | 0.00 | 63 | 1010.8 |
| 20260506023311 | 69 | 146 | 1.0 | 4.0 | 0.00 | 0.00 | 0.00 | 62 | 1010.8 |
| 20260506022319 | 69 | 136 | 2.0 | 9.0 | 0.00 | 0.00 | 0.00 | 62 | 1010.8 |
| 20260506021315 | 70 | 66 | 1.0 | 6.0 | 0.00 | 0.00 | 0.00 | 61 | 1010.8 |
| 20260506020340 | 70 | 143 | 0.0 | 3.0 | 0.00 | 0.00 | 0.00 | 60 | 1010.8 |
| 20260506015321 | 71 | 190 | 2.0 | 9.0 | 0.00 | 0.00 | 0.00 | 59 | 1010.7 |
| 20260506014325 | 71 | 192 | 1.0 | 5.0 | 0.00 | 0.00 | 0.00 | 57 | 1010.7 |
| 20260506013322 | 72 | 148 | 3.0 | 6.0 | 0.00 | 0.00 | 0.00 | 55 | 1010.5 |
| 20260506012325 | 72 | 103 | 2.0 | 9.0 | 0.00 | 0.00 | 0.00 | 53 | 1010.4 |
| 20260506011348 | 72 | 160 | 2.0 | 9.0 | 0.00 | 0.00 | 0.00 | 52 | 1010.3 |
| 20260506010324 | 73 | 129 | 0.0 | 6.0 | 0.00 | 0.00 | 0.00 | 51 | 1010.2 |
| 20260506005324 | 73 | 116 | 0.0 | 7.0 | 0.00 | 0.00 | 0.00 | 49 | 1010.0 |
| 20260506004309 | 74 | 141 | 0.0 | 5.0 | 0.00 | 0.00 | 0.00 | 46 | 1010.0 |
| 20260506003321 | 75 | 2 | 1.0 | 6.0 | 0.00 | 0.00 | 0.00 | 44 | 1009.9 |
| 20260506002352 | 75 | 348 | 0.0 | 7.0 | 0.00 | 0.00 | 0.00 | 44 | 1009.7 |
| 20260506001353 | 76 | 273 | 0.0 | 5.0 | 0.00 | 0.00 | 0.00 | 43 | 1009.6 |
| 20260506000309 | 76 | 183 | 2.0 | 7.0 | 0.00 | 0.00 | 0.00 | 43 | 1009.5 |
| 20260505235309 | 76 | 178 | 1.0 | 8.0 | 0.00 | 0.00 | 0.00 | 42 | 1009.4 |
| 20260505234326 | 77 | 129 | 2.0 | 8.0 | 0.00 | 0.00 | 0.00 | 42 | 1009.4 |
| 20260505233308 | 77 | 321 | 1.0 | 9.0 | 0.00 | 0.00 | 0.00 | 43 | 1009.4 |
| 20260505232330 | 77 | 321 | 1.0 | 6.0 | 0.00 | 0.00 | 0.00 | 43 | 1009.2 |
| 20260505231311 | 77 | 3 | 0.0 | 6.0 | 0.00 | 0.00 | 0.00 | 43 | 1009.1 |
| 20260505230308 | 78 | 301 | 1.0 | 7.0 | 0.00 | 0.00 | 0.00 | 42 | 1009.1 |
| 20260505225326 | 78 | 146 | 3.0 | 7.0 | 0.00 | 0.00 | 0.00 | 41 | 1009.1 |
| 20260505224325 | 78 | 316 | 1.0 | 11.0 | 0.00 | 0.00 | 0.00 | 41 | 1009.1 |
| 20260505223319 | 79 | 326 | 1.0 | 13.0 | 0.00 | 0.00 | 0.00 | 41 | 1009.1 |
| 20260505222320 | 80 | 152 | 2.0 | 13.0 | 0.00 | 0.00 | 0.00 | 39 | 1008.9 |
| 20260505221321 | 80 | 158 | 1.0 | 10.0 | 0.00 | 0.00 | 0.00 | 37 | 1009.1 |
| 20260505220324 | 80 | 267 | 4.0 | 15.0 | 0.00 | 0.00 | 0.00 | 36 | 1009.0 |
| 20260505215318 | 81 | 118 | 2.0 | 12.0 | 0.00 | 0.00 | 0.00 | 36 | 1009.0 |
| 20260505214323 | 81 | 289 | 4.0 | 14.0 | 0.00 | 0.00 | 0.00 | 34 | 1008.7 |
| 20260505213325 | 82 | 214 | 1.0 | 14.0 | 0.00 | 0.00 | 0.00 | 33 | 1008.8 |
| 20260505212328 | 82 | 326 | 3.0 | 13.0 | 0.00 | 0.00 | 0.00 | 32 | 1008.9 |
| 20260505211314 | 83 | 88 | 3.0 | 6.0 | 0.00 | 0.00 | 0.00 | 31 | 1008.8 |
| 20260505210339 | 83 | 14 | 2.0 | 10.0 | 0.00 | 0.00 | 0.00 | 31 | 1009.0 |
| 20260505205321 | 83 | 183 | 1.0 | 11.0 | 0.00 | 0.00 | 0.00 | 30 | 1008.7 |
| 20260505204313 | 84 | 181 | 2.0 | 9.0 | 0.00 | 0.00 | 0.00 | 29 | 1008.7 |
| 20260505203315 | 84 | 17 | 4.0 | 11.0 | 0.00 | 0.00 | 0.00 | 28 | 1008.7 |
| 20260505202307 | 84 | 131 | 2.0 | 11.0 | 0.00 | 0.00 | 0.00 | 27 | 1008.8 |
| 20260505201333 | 85 | 32 | 2.0 | 14.0 | 0.00 | 0.00 | 0.00 | 27 | 1008.6 |
| 20260505200308 | 85 | 160 | 3.0 | 13.0 | 0.00 | 0.00 | 0.00 | 28 | 1008.8 |
| 20260505195329 | 84 | 77 | 2.0 | 13.0 | 0.00 | 0.00 | 0.00 | 28 | 1008.7 |
| 20260505194329 | 84 | 259 | 5.0 | 18.0 | 0.00 | 0.00 | 0.00 | 29 | 1008.7 |
| 20260505193322 | 85 | 300 | 2.0 | 9.0 | 0.00 | 0.00 | 0.00 | 30 | 1008.9 |
| 20260505192342 | 84 | 134 | 1.0 | 14.0 | 0.00 | 0.00 | 0.00 | 31 | 1009.0 |
| 20260505191319 | 84 | 56 | 2.0 | 10.0 | 0.00 | 0.00 | 0.00 | 34 | 1009.1 |
| 20260505190314 | 84 | 240 | 2.0 | 8.0 | 0.00 | 0.00 | 0.00 | 33 | 1009.2 |
| 20260505185309 | 84 | 133 | 4.0 | 16.0 | 0.00 | 0.00 | 0.00 | 33 | 1009.4 |
| 20260505184312 | 85 | 326 | 2.0 | 12.0 | 0.00 | 0.00 | 0.00 | 36 | 1009.7 |
| 20260505183333 | 85 | 30 | 3.0 | 10.0 | 0.00 | 0.00 | 0.00 | 36 | 1009.7 |
| 20260505182328 | 84 | 345 | 2.0 | 8.0 | 0.00 | 0.00 | 0.00 | 35 | 1009.8 |
| 20260505181347 | 84 | 311 | 2.0 | 9.0 | 0.00 | 0.00 | 0.00 | 35 | 1010.2 |
| 20260505180321 | 83 | 129 | 2.0 | 11.0 | 0.00 | 0.00 | 0.00 | 36 | 1010.0 |
| 20260505175318 | 84 | 152 | 2.0 | 11.0 | 0.00 | 0.00 | 0.00 | 37 | 1010.2 |
| 20260505174318 | 83 | 141 | 2.0 | 7.0 | 0.00 | 0.00 | 0.00 | 39 | 1010.3 |
| 20260505173313 | 83 | 346 | 4.0 | 13.0 | 0.00 | 0.00 | 0.00 | 39 | 1010.4 |
| 20260505172312 | 83 | 138 | 2.0 | 6.0 | 0.00 | 0.00 | 0.00 | 40 | 1010.5 |
| 20260505171311 | 82 | 217 | 2.0 | 9.0 | 0.00 | 0.00 | 0.00 | 39 | 1010.7 |
| 20260505170325 | 82 | 187 | 4.0 | 14.0 | 0.00 | 0.00 | 0.00 | 39 | 1010.7 |
| 20260505165324 | 82 | 144 | 2.0 | 6.0 | 0.00 | 0.00 | 0.00 | 39 | 1010.7 |
| 20260505164326 | 82 | 96 | 1.0 | 9.0 | 0.00 | 0.00 | 0.00 | 43 | 1010.9 |
| 20260505163322 | 81 | 163 | 2.0 | 7.0 | 0.00 | 0.00 | 0.00 | 40 | 1010.8 |
| 20260505162350 | 81 | 120 | 2.0 | 7.0 | 0.00 | 0.00 | 0.00 | 41 | 1011.0 |
| 20260505161324 | 81 | 124 | 2.0 | 9.0 | 0.00 | 0.00 | 0.00 | 41 | 1011.0 |
| 20260505160311 | 82 | 142 | 2.0 | 6.0 | 0.00 | 0.00 | 0.00 | 39 | 1011.1 |
| 20260505153319 | 82 | 176 | 1.0 | 8.0 | 0.00 | 0.00 | 0.00 | 42 | 1011.5 |
| 20260505152314 | 80 | 56 | 1.0 | 6.0 | 0.00 | 0.00 | 0.00 | 45 | 1011.5 |
| 20260505151310 | 79 | 288 | 0.0 | 7.0 | 0.00 | 0.00 | 0.00 | 46 | 1011.5 |
| 20260505150326 | 78 | 146 | 2.0 | 9.0 | 0.00 | 0.00 | 0.00 | 44 | 1011.4 |
| 20260505140335 | 75 | 188 | 0.0 | 3.0 | 0.00 | 0.00 | 0.00 | 50 | 1011.6 |
| 20260505124313 | 68 | 356 | 1.0 | 7.0 | 0.00 | 0.00 | 0.00 | 59 | 1011.9 |
| 20260505123329 | 67 | 278 | 1.0 | 9.0 | 0.00 | 0.00 | 0.00 | 62 | 1011.8 |
| 20260505122325 | 66 | 143 | 1.0 | 6.0 | 0.00 | 0.00 | 0.00 | 62 | 1011.6 |
| 20260505121314 | 65 | 150 | 2.0 | 6.0 | 0.00 | 0.00 | 0.00 | 64 | 1011.6 |
| 20260505120315 | 64 | 148 | 2.0 | 5.0 | 0.00 | 0.00 | 0.00 | 66 | 1011.5 |
| 20260505115310 | 63 | 181 | 0.0 | 4.0 | 0.00 | 0.00 | 0.00 | 69 | 1011.6 |
| 20260505114325 | 62 | 181 | 1.0 | 5.0 | 0.00 | 0.00 | 0.00 | 72 | 1011.5 |
| 20260505113314 | 61 | 137 | 0.0 | 5.0 | 0.00 | 0.00 | 0.00 | 74 | 1011.4 |
| 20260505112309 | 61 | 223 | 0.0 | 3.0 | 0.00 | 0.00 | 0.00 | 76 | 1011.3 |
| 20260505111330 | 60 | 160 | 0.0 | 3.0 | 0.00 | 0.00 | 0.00 | 77 | 1011.2 |
| 20260505110321 | 59 | 150 | 0.0 | 3.0 | 0.00 | 0.00 | 0.00 | 79 | 1011.1 |
| 20260505101324 | 59 | 224 | 0.0 | 1.0 | 0.00 | 0.00 | 0.00 | 79 | 1011.0 |
| 20260505100323 | 59 | 193 | 0.0 | 3.0 | 0.00 | 0.00 | 0.00 | 78 | 1010.9 |
| 20260505095311 | 60 | 145 | 0.0 | 3.0 | 0.00 | 0.00 | 0.00 | 77 | 1010.7 |
| 20260505094333 | 60 | 135 | 0.0 | 2.0 | 0.00 | 0.00 | 0.00 | 76 | 1010.7 |
| 20260505093330 | 60 | 128 | 0.0 | 4.0 | 0.00 | 0.00 | 0.00 | 76 | 1010.7 |
| 20260505092325 | 60 | 308 | 0.0 | 4.0 | 0.00 | 0.00 | 0.00 | 76 | 1010.6 |
| 20260505091321 | 59 | 16 | 0.0 | 4.0 | 0.00 | 0.00 | 0.00 | 76 | 1010.7 |
| 20260505090308 | 59 | 140 | 0.0 | 1.0 | 0.00 | 0.00 | 0.00 | 76 | 1010.6 |
| 20260505085309 | 60 | 131 | 0.0 | 2.0 | 0.00 | 0.00 | 0.00 | 76 | 1010.6 |
| 20260505084322 | 60 | 11 | 0.0 | 1.0 | 0.00 | 0.00 | 0.00 | 75 | 1010.7 |
| 20260505083319 | 60 | 130 | 0.0 | 1.0 | 0.00 | 0.00 | 0.00 | 75 | 1010.7 |
| 20260505082332 | 60 | 96 | 0.0 | 2.0 | 0.00 | 0.00 | 0.00 | 74 | 1010.6 |
| 20260505081322 | 60 | 143 | 0.0 | 5.0 | 0.00 | 0.00 | 0.00 | 74 | 1010.3 |
| 20260505080315 | 60 | 240 | 0.0 | 4.0 | 0.00 | 0.00 | 0.00 | 75 | 1010.4 |
| 20260505075321 | 60 | 86 | 0.0 | 1.0 | 0.00 | 0.00 | 0.00 | 75 | 1010.5 |
| 20260505074318 | 60 | 126 | 0.0 | 1.0 | 0.00 | 0.00 | 0.00 | 74 | 1010.6 |
| 20260505073327 | 60 | 309 | 0.0 | 2.0 | 0.00 | 0.00 | 0.00 | 74 | 1010.7 |
| 20260505072324 | 60 | 122 | 1.0 | 3.0 | 0.00 | 0.00 | 0.00 | 73 | 1010.6 |
| 20260505071322 | 60 | 170 | 0.0 | 4.0 | 0.00 | 0.00 | 0.00 | 74 | 1010.6 |
| 20260505070335 | 60 | 138 | 0.0 | 7.0 | 0.00 | 0.00 | 0.00 | 74 | 1010.5 |
| 20260505065325 | 59 | 94 | 0.0 | 2.0 | 0.00 | 0.00 | 0.00 | 75 | 1010.5 |
| 20260505064341 | 59 | 86 | 0.0 | 1.0 | 0.00 | 0.00 | 0.00 | 75 | 1010.5 |
| 20260505063311 | 58 | 13 | 0.0 | 1.0 | 0.00 | 0.00 | 0.00 | 75 | 1010.4 |
| 20260505062322 | 58 | 131 | 0.0 | 1.0 | 0.00 | 0.00 | 0.00 | 75 | 1010.5 |
| 20260505061319 | 58 | 115 | 0.0 | 4.0 | 0.00 | 0.00 | 0.00 | 74 | 1010.6 |
| 20260505060328 | 59 | 105 | 0.0 | 2.0 | 0.00 | 0.00 | 0.00 | 74 | 1010.6 |
| 20260505055312 | 59 | 154 | 0.0 | 1.0 | 0.00 | 0.00 | 0.00 | 72 | 1010.7 |
| 20260505054335 | 60 | 346 | 0.0 | 4.0 | 0.00 | 0.00 | 0.00 | 72 | 1010.7 |
| 20260505053318 | 60 | 337 | 0.0 | 3.0 | 0.00 | 0.00 | 0.00 | 71 | 1010.7 |
| 20260505052314 | 60 | 328 | 0.0 | 4.0 | 0.00 | 0.00 | 0.00 | 71 | 1010.7 |
| 20260505051328 | 60 | 128 | 0.0 | 6.0 | 0.00 | 0.00 | 0.00 | 70 | 1010.8 |
| 20260505050341 | 60 | 111 | 0.0 | 1.0 | 0.00 | 0.00 | 0.00 | 70 | 1010.8 |
| 20260505041310 | 61 | 102 | 0.0 | 3.0 | 0.00 | 0.00 | 0.00 | 65 | 1010.8 |
| 20260505040324 | 61 | 126 | 0.0 | 2.0 | 0.00 | 0.00 | 0.00 | 63 | 1010.7 |
| 20260505035311 | 61 | 176 | 0.0 | 2.0 | 0.00 | 0.00 | 0.00 | 62 | 1010.6 |
| 20260505034328 | 61 | 135 | 0.0 | 5.0 | 0.00 | 0.00 | 0.00 | 61 | 1010.7 |
| 20260505033323 | 62 | 320 | 0.0 | 3.0 | 0.00 | 0.00 | 0.00 | 59 | 1010.7 |